******** Week 354 almanac for PRN-1 ******** ID: 1 Health: 0 Eccentricity: 0.001413345337 Time of Applicability(s): 589824 Orbital Inclination(rad): 0.9584287994 Rate of Right Ascen(r/s): -7.977475151e-09 SQRT(A) (m 1/2): 5153.583496 Right Ascen at Week(rad): -2.39738989 Argument of Perigee(rad): -0.006387591877 Mean Anom(rad): 0.9156011498 Af0(s): 0.000269061731 Af1(s/s): -3.637979e-12 week: 354 ******** Week 354 almanac for PRN-2 ******** ID: 2 Health: 0 Eccentricity: 0.01697540283 Time of Applicability(s): 589824 Orbital Inclination(rad): 0.9638995981 Rate of Right Ascen(r/s): -7.931758961e-09 SQRT(A) (m 1/2): 5153.561035 Right Ascen at Week(rad): -2.560063759 Argument of Perigee(rad): -0.8423955119 Mean Anom(rad): 2.309688208 Af0(s): 1.884185791e-05 Af1(s/s): 7.275958e-12 week: 354 ******** Week 354 almanac for PRN-3 ******** ID: 3 Health: 0 Eccentricity: 0.006369590759 Time of Applicability(s): 589824 Orbital Inclination(rad): 0.9926257852 Rate of Right Ascen(r/s): -7.657461821e-09 SQRT(A) (m 1/2): 5153.603516 Right Ascen at Week(rad): -1.411275433 Argument of Perigee(rad): 1.208178399 Mean Anom(rad): -1.310350658 Af0(s): 0.0004657707275 Af1(s/s): -1.091394e-11 week: 354 ******** Week 354 almanac for PRN-4 ******** ID: 4 Health: 0 Eccentricity: 0.003726959228 Time of Applicability(s): 589824 Orbital Inclination(rad): 0.970502906 Rate of Right Ascen(r/s): -7.977475151e-09 SQRT(A) (m 1/2): 5153.691895 Right Ascen at Week(rad): -0.340007441 Argument of Perigee(rad): -2.904578392 Mean Anom(rad): 1.730666637 Af0(s): 3.165432129e-05 Af1(s/s): 3.637979e-12 week: 354 ******** Week 354 almanac for PRN-5 ******** ID: 5 Health: 0 Eccentricity: 0.005373001099 Time of Applicability(s): 589824 Orbital Inclination(rad): 0.9792094454 Rate of Right Ascen(r/s): -7.760323248e-09 SQRT(A) (m 1/2): 5153.63916 Right Ascen at Week(rad): -1.470563266 Argument of Perigee(rad): 1.423432306 Mean Anom(rad): 2.350385513 Af0(s): -0.0001801281616 Af1(s/s): 0 week: 354 ******** Week 354 almanac for PRN-6 ******** ID: 6 Health: 0 Eccentricity: 0.003871440887 Time of Applicability(s): 589824 Orbital Inclination(rad): 0.9873707026 Rate of Right Ascen(r/s): -7.680319916e-09 SQRT(A) (m 1/2): 5153.570801 Right Ascen at Week(rad): -2.447901151 Argument of Perigee(rad): -0.6163797712 Mean Anom(rad): 0.06277748966 Af0(s): -0.0004785831909 Af1(s/s): -3.637979e-12 week: 354 ******** Week 354 almanac for PRN-7 ******** ID: 7 Health: 0 Eccentricity: 0.02023649216 Time of Applicability(s): 589824 Orbital Inclination(rad): 0.9510165563 Rate of Right Ascen(r/s): -7.840326581e-09 SQRT(A) (m 1/2): 5153.584961 Right Ascen at Week(rad): 0.6685515963 Argument of Perigee(rad): -2.003001032 Mean Anom(rad): -0.8424284685 Af0(s): -0.0001107901245 Af1(s/s): -3.637979e-12 week: 354 ******** Week 354 almanac for PRN-8 ******** ID: 8 Health: 0 Eccentricity: 0.01144790649 Time of Applicability(s): 589824 Orbital Inclination(rad): 0.9441675718 Rate of Right Ascen(r/s): -8.308917528e-09 SQRT(A) (m 1/2): 5153.613281 Right Ascen at Week(rad): 2.716953741 Argument of Perigee(rad): 0.5066368532 Mean Anom(rad): 2.003975874 Af0(s): 0.0003956790161 Af1(s/s): -3.637979e-12 week: 354 ******** Week 354 almanac for PRN-9 ******** ID: 9 Health: 0 Eccentricity: 0.003348350525 Time of Applicability(s): 589824 Orbital Inclination(rad): 0.9646066674 Rate of Right Ascen(r/s): -8.046049436e-09 SQRT(A) (m 1/2): 5153.51709 Right Ascen at Week(rad): -0.4039747395 Argument of Perigee(rad): 2.068113573 Mean Anom(rad): 2.592469852 Af0(s): 0.0006089688477 Af1(s/s): 0 week: 354 ******** Week 354 almanac for PRN-10 ******** ID: 10 Health: 0 Eccentricity: 0.01096343994 Time of Applicability(s): 589824 Orbital Inclination(rad): 0.9921643925 Rate of Right Ascen(r/s): -7.623174678e-09 SQRT(A) (m 1/2): 5153.607422 Right Ascen at Week(rad): -1.413784256 Argument of Perigee(rad): -2.263840309 Mean Anom(rad): -2.28317386 Af0(s): -0.000462002356 Af1(s/s): -3.637979e-12 week: 354 ******** Week 354 almanac for PRN-11 ******** ID: 11 Health: 0 Eccentricity: 0.002239704132 Time of Applicability(s): 589824 Orbital Inclination(rad): 0.9642171801 Rate of Right Ascen(r/s): -7.920329913e-09 SQRT(A) (m 1/2): 5153.733887 Right Ascen at Week(rad): -2.428293461 Argument of Perigee(rad): -2.246660548 Mean Anom(rad): 1.021342086 Af0(s): -0.0003655320435 Af1(s/s): 1.455192e-11 week: 354 ******** Week 354 almanac for PRN-12 ******** ID: 12 Health: 0 Eccentricity: 0.009078025818 Time of Applicability(s): 589824 Orbital Inclination(rad): 0.9588482473 Rate of Right Ascen(r/s): -7.897471818e-09 SQRT(A) (m 1/2): 5153.509766 Right Ascen at Week(rad): 1.786390661 Argument of Perigee(rad): 1.538540037 Mean Anom(rad): -1.457852872 Af0(s): -0.0004793368652 Af1(s/s): 0 week: 354 ******** Week 354 almanac for PRN-13 ******** ID: 13 Health: 0 Eccentricity: 0.009917736053 Time of Applicability(s): 589824 Orbital Inclination(rad): 0.9762193813 Rate of Right Ascen(r/s): -7.920329913e-09 SQRT(A) (m 1/2): 5153.617676 Right Ascen at Week(rad): -0.2294248782 Argument of Perigee(rad): 1.000884639 Mean Anom(rad): 1.735509387 Af0(s): 0.0005441528564 Af1(s/s): 0 week: 354 ******** Week 354 almanac for PRN-14 ******** ID: 14 Health: 0 Eccentricity: 0.006547451019 Time of Applicability(s): 589824 Orbital Inclination(rad): 0.9421841826 Rate of Right Ascen(r/s): -8.057478483e-09 SQRT(A) (m 1/2): 5153.594238 Right Ascen at Week(rad): 1.732328324 Argument of Perigee(rad): -2.762687041 Mean Anom(rad): -1.654895626 Af0(s): 0.0005773145264 Af1(s/s): 3.637979e-12 week: 354 ******** Week 354 almanac for PRN-15 ******** ID: 15 Health: 0 Eccentricity: 0.01660013199 Time of Applicability(s): 589824 Orbital Inclination(rad): 0.9423639459 Rate of Right Ascen(r/s): -8.308917528e-09 SQRT(A) (m 1/2): 5153.617676 Right Ascen at Week(rad): -0.5470899788 Argument of Perigee(rad): 1.495060895 Mean Anom(rad): 0.9985349822 Af0(s): 0.0002999623779 Af1(s/s): 3.637979e-12 week: 354 ******** Week 354 almanac for PRN-16 ******** ID: 16 Health: 0 Eccentricity: 0.01504707336 Time of Applicability(s): 589824 Orbital Inclination(rad): 0.9580033594 Rate of Right Ascen(r/s): -7.908900866e-09 SQRT(A) (m 1/2): 5153.579102 Right Ascen at Week(rad): 1.803435974 Argument of Perigee(rad): 0.9241537668 Mean Anom(rad): 3.007806011 Af0(s): 0.0001537495605 Af1(s/s): 7.275958e-12 week: 354 ******** Week 354 almanac for PRN-17 ******** ID: 17 Health: 0 Eccentricity: 0.01277923584 Time of Applicability(s): 589824 Orbital Inclination(rad): 0.9599448039 Rate of Right Ascen(r/s): -8.160339911e-09 SQRT(A) (m 1/2): 5153.515625 Right Ascen at Week(rad): 2.821045723 Argument of Perigee(rad): -1.132969898 Mean Anom(rad): 1.901532847 Af0(s): -3.391534424e-05 Af1(s/s): -1.091394e-11 week: 354 ******** Week 354 almanac for PRN-18 ******** ID: 18 Health: 0 Eccentricity: 0.005703449249 Time of Applicability(s): 589824 Orbital Inclination(rad): 0.9723364924 Rate of Right Ascen(r/s): -7.828897533e-09 SQRT(A) (m 1/2): 5153.600098 Right Ascen at Week(rad): -2.452411339 Argument of Perigee(rad): -2.855914574 Mean Anom(rad): -0.08398469916 Af0(s): -0.0003497048828 Af1(s/s): 1.091394e-11 week: 354 ******** Week 354 almanac for PRN-19 ******** ID: 19 Health: 0 Eccentricity: 0.01100587845 Time of Applicability(s): 589824 Orbital Inclination(rad): 0.9591478529 Rate of Right Ascen(r/s): -8.148910863e-09 SQRT(A) (m 1/2): 5153.655273 Right Ascen at Week(rad): 2.864947309 Argument of Perigee(rad): 2.917806355 Mean Anom(rad): -2.526702673 Af0(s): 0.0005426455078 Af1(s/s): 0 week: 354 ******** Week 354 almanac for PRN-21 ******** ID: 21 Health: 0 Eccentricity: 0.000593662262 Time of Applicability(s): 589824 Orbital Inclination(rad): 0.9620480353 Rate of Right Ascen(r/s): -7.943188008e-09 SQRT(A) (m 1/2): 5153.695312 Right Ascen at Week(rad): -1.403911876 Argument of Perigee(rad): -0.4497664629 Mean Anom(rad): -1.648333514 Af0(s): 0.0003059917725 Af1(s/s): 7.275958e-12 week: 354 ******** Week 354 almanac for PRN-22 ******** ID: 22 Health: 0 Eccentricity: 0.01219320297 Time of Applicability(s): 589824 Orbital Inclination(rad): 0.9574401009 Rate of Right Ascen(r/s): -7.920329913e-09 SQRT(A) (m 1/2): 5153.578125 Right Ascen at Week(rad): 1.806779573 Argument of Perigee(rad): -0.9969796545 Mean Anom(rad): 2.553414386 Af0(s): -4.371311035e-05 Af1(s/s): 3.637979e-12 week: 354 ******** Week 354 almanac for PRN-23 ******** ID: 23 Health: 0 Eccentricity: 0.00599861145 Time of Applicability(s): 589824 Orbital Inclination(rad): 0.9871669707 Rate of Right Ascen(r/s): -7.691748963e-09 SQRT(A) (m 1/2): 5153.65625 Right Ascen at Week(rad): -1.445709856 Argument of Perigee(rad): -2.745865309 Mean Anom(rad): -1.186178358 Af0(s): 0.0004770758423 Af1(s/s): 3.637979e-12 week: 354 ******** Week 354 almanac for PRN-24 ******** ID: 24 Health: 0 Eccentricity: 0.0178360939 Time of Applicability(s): 589824 Orbital Inclination(rad): 0.9350715451 Rate of Right Ascen(r/s): -8.103194673e-09 SQRT(A) (m 1/2): 5153.596191 Right Ascen at Week(rad): 0.5607358914 Argument of Perigee(rad): 1.130806745 Mean Anom(rad): 0.1379264445 Af0(s): -0.0001183268677 Af1(s/s): 1.455192e-11 week: 354 ******** Week 354 almanac for PRN-25 ******** ID: 25 Health: 0 Eccentricity: 0.01294231415 Time of Applicability(s): 589824 Orbital Inclination(rad): 0.9471696201 Rate of Right Ascen(r/s): -8.000333246e-09 SQRT(A) (m 1/2): 5153.6875 Right Ascen at Week(rad): 1.692947038 Argument of Perigee(rad): 1.152473849 Mean Anom(rad): -1.616330764 Af0(s): 0.0003542269287 Af1(s/s): -3.637979e-12 week: 354 ******** Week 354 almanac for PRN-26 ******** ID: 26 Health: 0 Eccentricity: 0.01097202301 Time of Applicability(s): 589824 Orbital Inclination(rad): 0.9279469234 Rate of Right Ascen(r/s): -8.160339911e-09 SQRT(A) (m 1/2): 5153.64209 Right Ascen at Week(rad): 1.619079272 Argument of Perigee(rad): 0.7039608614 Mean Anom(rad): -2.444303262 Af0(s): -0.000250219873 Af1(s/s): -7.275958e-12 week: 354 ******** Week 354 almanac for PRN-27 ******** ID: 27 Health: 0 Eccentricity: 0.01421260834 Time of Applicability(s): 589824 Orbital Inclination(rad): 0.9532875669 Rate of Right Ascen(r/s): -8.206056101e-09 SQRT(A) (m 1/2): 5153.608887 Right Ascen at Week(rad): 2.74864902 Argument of Perigee(rad): 0.8697412661 Mean Anom(rad): 2.096013598 Af0(s): -2.034920654e-05 Af1(s/s): -7.275958e-12 week: 354 ******** Week 354 almanac for PRN-28 ******** ID: 28 Health: 0 Eccentricity: 0.0003976821899 Time of Applicability(s): 589824 Orbital Inclination(rad): 0.9619881142 Rate of Right Ascen(r/s): -7.783181343e-09 SQRT(A) (m 1/2): 5153.720215 Right Ascen at Week(rad): 0.6423945274 Argument of Perigee(rad): 0.3060711121 Mean Anom(rad): -0.7842922445 Af0(s): -0.0004793368652 Af1(s/s): 7.275958e-12 week: 354 ******** Week 354 almanac for PRN-29 ******** ID: 29 Health: 0 Eccentricity: 0.003280639648 Time of Applicability(s): 589824 Orbital Inclination(rad): 0.9625873255 Rate of Right Ascen(r/s): -8.137481816e-09 SQRT(A) (m 1/2): 5153.725586 Right Ascen at Week(rad): 2.837654735 Argument of Perigee(rad): 2.747325887 Mean Anom(rad): 1.972507546 Af0(s): -0.0003059917725 Af1(s/s): 7.275958e-12 week: 354 ******** Week 354 almanac for PRN-30 ******** ID: 30 Health: 0 Eccentricity: 0.007913589477 Time of Applicability(s): 589824 Orbital Inclination(rad): 0.9362759597 Rate of Right Ascen(r/s): -8.023191341e-09 SQRT(A) (m 1/2): 5153.723145 Right Ascen at Week(rad): 0.6600892355 Argument of Perigee(rad): -2.343544767 Mean Anom(rad): -0.9597959752 Af0(s): 7.762845459e-05 Af1(s/s): 1.091394e-11 week: 354 ******** Week 354 almanac for PRN-31 ******** ID: 31 Health: 0 Eccentricity: 0.01085519791 Time of Applicability(s): 589824 Orbital Inclination(rad): 0.9547796029 Rate of Right Ascen(r/s): -7.851755628e-09 SQRT(A) (m 1/2): 5153.713867 Right Ascen at Week(rad): 0.6926073063 Argument of Perigee(rad): 0.9330602929 Mean Anom(rad): -1.915855494 Af0(s): -0.0001349077026 Af1(s/s): 3.637979e-12 week: 354 ******** Week 354 almanac for PRN-32 ******** ID: 32 Health: 0 Eccentricity: 0.009218215942 Time of Applicability(s): 589824 Orbital Inclination(rad): 0.9676806211 Rate of Right Ascen(r/s): -8.000333246e-09 SQRT(A) (m 1/2): 5153.661133 Right Ascen at Week(rad): -0.3871035723 Argument of Perigee(rad): -2.02119758 Mean Anom(rad): 2.701216581 Af0(s): -0.000116819519 Af1(s/s): 1.818989e-11 week: 354